CFG9XY EDDF-LEPA

Flight info

Callsign CFG9XY
Flight time 1h 43m
Altitude 33000
Route ANEKI3F ANEKI Y163 HERBI Y164 MOPAN DCT LUTIX/N0456F350 DCT BENOT DCT NEMOS DCT GEVEA DCT INCUS DCT BALSI DCT RETNO DCT TUPOX DCT MTG DCT DIVKO DCT VATIR DCT PIVUS N852 VERSO L129 LUNIK
Aircraft A321/M-SDE3FGHIRWY/LB1

Departure

Time 2026-05-07 03:17
Airport Frankfurt Main Airport (EDDF)

Arrival

Time 2026-05-07 05:00
Airport Palma de Mallorca Airport (LEPA)
Time Latitude Longitude Altitude Speed Heading
2026-05-07 02:57 50.04533 8.56586 361 ft 0 kts 115°
2026-05-07 03:07 50.04536 8.56575 364 ft 4 kts 115°
2026-05-07 03:08 50.04548 8.56538 361 ft 4 kts 117°
2026-05-07 03:08 50.04561 8.56501 358 ft 4 kts 126°
2026-05-07 03:08 50.04578 8.56473 362 ft 4 kts 159°
2026-05-07 03:08 50.04592 8.56469 360 ft 1 kts 205°
2026-05-07 03:09 50.04575 8.56457 359 ft 2 kts 205°
2026-05-07 03:09 50.04574 8.56456 359 ft 0 kts 205°
2026-05-07 03:11 50.04532 8.56424 360 ft 14 kts 217°
2026-05-07 03:11 50.04485 8.56260 356 ft 18 kts 251°
2026-05-07 03:11 50.04445 8.56082 358 ft 17 kts 248°
2026-05-07 03:12 50.04354 8.56048 358 ft 17 kts 154°
2026-05-07 03:12 50.04261 8.56023 359 ft 16 kts 249°
2026-05-07 03:12 50.04208 8.55817 356 ft 23 kts 248°
2026-05-07 03:12 50.04148 8.55571 354 ft 29 kts 249°
2026-05-07 03:13 50.04076 8.55269 360 ft 29 kts 250°
2026-05-07 03:13 50.04010 8.54983 355 ft 27 kts 250°
2026-05-07 03:13 50.03944 8.54704 354 ft 28 kts 250°
2026-05-07 03:13 50.03876 8.54426 349 ft 28 kts 249°
2026-05-07 03:14 50.03785 8.54171 350 ft 27 kts 247°
2026-05-07 03:14 50.03724 8.53905 350 ft 26 kts 249°
2026-05-07 03:14 50.03598 8.53395 337 ft 25 kts 250°
2026-05-07 03:15 50.03542 8.53147 335 ft 24 kts 251°
2026-05-07 03:15 50.03481 8.52908 336 ft 23 kts 248°
2026-05-07 03:15 50.03418 8.52667 332 ft 24 kts 241°
2026-05-07 03:15 50.03289 8.52585 335 ft 23 kts 178°
2026-05-07 03:16 50.02920 8.52593 333 ft 87 kts 179°
2026-05-07 03:16 50.02120 8.52608 335 ft 141 kts 179°
2026-05-07 03:16 50.00995 8.52624 335 ft 181 kts 182°
2026-05-07 03:16 49.99686 8.52662 783 ft 183 kts 181°
2026-05-07 03:17 49.98439 8.52720 1800 ft 179 kts 181°
2026-05-07 03:17 49.97165 8.52740 2534 ft 192 kts 185°
2026-05-07 03:17 49.95754 8.52638 3006 ft 215 kts 186°
2026-05-07 03:17 49.94187 8.52494 3475 ft 239 kts 186°
2026-05-07 03:18 49.92435 8.52336 4079 ft 261 kts 185°
2026-05-07 03:18 49.90593 8.52186 5077 ft 268 kts 185°
2026-05-07 03:18 49.88716 8.52045 6157 ft 272 kts 185°
2026-05-07 03:18 49.86813 8.51908 7132 ft 277 kts 185°
2026-05-07 03:19 49.84867 8.51770 8058 ft 283 kts 185°
2026-05-07 03:19 49.82879 8.51634 8981 ft 289 kts 185°
2026-05-07 03:19 49.80850 8.51496 9873 ft 295 kts 185°
2026-05-07 03:19 49.78752 8.51351 10382 ft 312 kts 185°
2026-05-07 03:20 49.76508 8.51186 10508 ft 333 kts 185°
2026-05-07 03:20 49.74127 8.51006 10644 ft 353 kts 185°
2026-05-07 03:20 49.71611 8.50822 10859 ft 367 kts 184°
2026-05-07 03:20 49.69034 8.50643 11380 ft 373 kts 184°
2026-05-07 03:21 49.66433 8.50467 11968 ft 376 kts 184°
2026-05-07 03:21 49.63844 8.50290 12573 ft 379 kts 184°
2026-05-07 03:21 49.61196 8.50106 13166 ft 382 kts 184°
2026-05-07 03:21 49.58530 8.49924 13749 ft 385 kts 183°
2026-05-07 03:22 49.55833 8.49735 14263 ft 388 kts 183°
2026-05-07 03:22 49.53126 8.49542 14783 ft 391 kts 183°
2026-05-07 03:22 49.50402 8.49347 15297 ft 394 kts 183°
2026-05-07 03:22 49.47655 8.49149 15803 ft 396 kts 183°
2026-05-07 03:23 49.44891 8.48954 16305 ft 399 kts 183°
2026-05-07 03:23 49.42109 8.48762 16801 ft 401 kts 183°
2026-05-07 03:23 49.39311 8.48570 17290 ft 404 kts 183°
2026-05-07 03:23 49.36490 8.48377 17769 ft 407 kts 182°
2026-05-07 03:24 49.33656 8.48184 18239 ft 409 kts 183°
2026-05-07 03:24 49.30799 8.47975 18652 ft 412 kts 184°
2026-05-07 03:24 49.27934 8.47679 19059 ft 414 kts 185°
2026-05-07 03:24 49.25051 8.47303 19466 ft 417 kts 185°
2026-05-07 03:25 49.22161 8.46886 19871 ft 419 kts 186°
2026-05-07 03:25 49.20235 8.46601 20140 ft 420 kts 186°
2026-05-07 03:25 49.17315 8.46178 20546 ft 423 kts 186°
2026-05-07 03:25 49.14380 8.45768 20948 ft 425 kts 185°
2026-05-07 03:26 49.11425 8.45375 21349 ft 428 kts 185°
2026-05-07 03:26 49.08451 8.44994 21755 ft 430 kts 185°
2026-05-07 03:26 49.05479 8.44427 22142 ft 432 kts 192°
2026-05-07 03:26 49.02531 8.43425 22526 ft 435 kts 193°
2026-05-07 03:27 48.99571 8.42401 22901 ft 438 kts 193°
2026-05-07 03:27 48.96592 8.41365 23274 ft 440 kts 193°
2026-05-07 03:27 48.93597 8.40323 23615 ft 443 kts 193°
2026-05-07 03:27 48.90587 8.39272 23928 ft 445 kts 193°
2026-05-07 03:28 48.87557 8.38214 24250 ft 447 kts 193°
2026-05-07 03:28 48.84510 8.37156 24568 ft 450 kts 193°
2026-05-07 03:28 48.81450 8.36094 24866 ft 452 kts 193°
2026-05-07 03:28 48.78385 8.35029 25193 ft 454 kts 193°
2026-05-07 03:29 48.75303 8.33939 25516 ft 456 kts 193°
2026-05-07 03:29 48.72217 8.32820 25824 ft 457 kts 193°
2026-05-07 03:29 48.69115 8.31678 26141 ft 459 kts 194°
2026-05-07 03:29 48.66005 8.30524 26431 ft 461 kts 194°
2026-05-07 03:30 48.62879 8.29369 26714 ft 463 kts 193°
2026-05-07 03:30 48.59744 8.28224 27007 ft 465 kts 193°
2026-05-07 03:30 48.56595 8.27083 27295 ft 467 kts 193°
2026-05-07 03:30 48.53424 8.25940 27570 ft 469 kts 193°
2026-05-07 03:31 48.50243 8.24793 27853 ft 471 kts 193°
2026-05-07 03:31 48.47057 8.23642 28244 ft 470 kts 193°
2026-05-07 03:31 48.43883 8.22488 28652 ft 468 kts 193°
2026-05-07 03:31 48.40722 8.21330 29067 ft 467 kts 194°
2026-05-07 03:32 48.37566 8.20171 29458 ft 466 kts 194°
2026-05-07 03:32 48.34423 8.19019 29845 ft 465 kts 194°
2026-05-07 03:32 48.31281 8.17869 30195 ft 464 kts 194°
2026-05-07 03:32 48.28188 8.16739 30509 ft 463 kts 194°
2026-05-07 03:33 48.25087 8.15472 30833 ft 461 kts 200°
2026-05-07 03:33 48.22136 8.13617 31141 ft 460 kts 207°
2026-05-07 03:33 48.19272 8.11486 31467 ft 458 kts 207°
2026-05-07 03:33 48.16420 8.09369 31805 ft 456 kts 207°
2026-05-07 03:34 48.13583 8.07270 32189 ft 454 kts 207°
2026-05-07 03:34 48.10762 8.05184 32572 ft 451 kts 207°
2026-05-07 03:34 48.07957 8.03115 32946 ft 448 kts 207°
2026-05-07 03:34 48.05167 8.01064 33302 ft 446 kts 207°
2026-05-07 03:35 48.02392 7.99027 33627 ft 444 kts 207°
2026-05-07 03:35 47.99619 7.96992 33930 ft 443 kts 207°
2026-05-07 03:35 47.96856 7.94962 34170 ft 442 kts 207°
2026-05-07 03:35 47.94100 7.92939 34385 ft 441 kts 207°
2026-05-07 03:36 47.91346 7.90923 34583 ft 441 kts 207°
2026-05-07 03:36 47.88592 7.88911 34781 ft 441 kts 207°
2026-05-07 03:36 47.85838 7.86905 34933 ft 441 kts 207°
2026-05-07 03:37 47.80323 7.82899 34989 ft 440 kts 207°
2026-05-07 03:37 47.74824 7.78902 34991 ft 440 kts 207°
2026-05-07 03:38 47.69325 7.74896 34999 ft 440 kts 207°
2026-05-07 03:38 47.63823 7.70905 35000 ft 440 kts 207°
2026-05-07 03:39 47.58319 7.66937 35002 ft 440 kts 207°
2026-05-07 03:39 47.52810 7.62973 35002 ft 440 kts 207°
2026-05-07 03:40 47.47306 7.59020 35003 ft 440 kts 207°
2026-05-07 03:40 47.41797 7.55077 35003 ft 440 kts 207°
2026-05-07 03:41 47.36291 7.51152 35004 ft 440 kts 207°
2026-05-07 03:41 47.30788 7.47208 35005 ft 439 kts 207°
2026-05-07 03:42 47.25287 7.43280 35008 ft 439 kts 207°
2026-05-07 03:42 47.19789 7.39368 35006 ft 439 kts 210°
2026-05-07 03:43 47.14953 7.34027 35005 ft 435 kts 228°
2026-05-07 03:43 47.11135 7.27147 35003 ft 435 kts 232°
2026-05-07 03:44 47.07359 7.20203 35000 ft 435 kts 232°
2026-05-07 03:44 47.03601 7.13309 34983 ft 435 kts 232°
2026-05-07 03:45 46.99810 7.06375 34998 ft 436 kts 232°
2026-05-07 03:45 46.96017 6.99452 35002 ft 436 kts 232°
2026-05-07 03:46 46.92216 6.92543 35001 ft 436 kts 230°
2026-05-07 03:46 46.87763 6.86545 34996 ft 437 kts 220°
2026-05-07 03:47 46.83045 6.80937 34997 ft 437 kts 220°
2026-05-07 03:47 46.78337 6.75331 34999 ft 437 kts 220°
2026-05-07 03:48 46.73626 6.69731 34997 ft 437 kts 220°
2026-05-07 03:48 46.68906 6.64143 34993 ft 437 kts 220°
2026-05-07 03:49 46.64186 6.58574 34995 ft 437 kts 220°
2026-05-07 03:49 46.59468 6.53008 34991 ft 437 kts 220°
2026-05-07 03:50 46.54745 6.47445 34990 ft 437 kts 220°
2026-05-07 03:50 46.50015 6.41901 34994 ft 437 kts 220°
2026-05-07 03:51 46.45283 6.36370 35000 ft 437 kts 220°
2026-05-07 03:51 46.40548 6.30838 35002 ft 437 kts 220°
2026-05-07 03:52 46.35810 6.25314 35006 ft 437 kts 220°
2026-05-07 03:52 46.31068 6.19805 35008 ft 437 kts 220°
2026-05-07 03:53 46.26147 6.14745 35011 ft 439 kts 208°
2026-05-07 03:53 46.20316 6.12080 35007 ft 444 kts 191°
2026-05-07 03:54 46.14197 6.10760 35009 ft 445 kts 191°
2026-05-07 03:54 46.08085 6.09391 35028 ft 445 kts 191°
2026-05-07 03:55 46.01965 6.08016 35030 ft 445 kts 191°
2026-05-07 03:55 45.95848 6.06652 35032 ft 445 kts 191°
2026-05-07 03:56 45.89736 6.05305 35028 ft 444 kts 191°
2026-05-07 03:56 45.83621 6.03969 35022 ft 444 kts 191°
2026-05-07 03:57 45.77505 6.02617 35027 ft 444 kts 192°
2026-05-07 03:57 45.71400 6.01272 35005 ft 444 kts 192°
2026-05-07 03:58 45.65295 5.99926 35008 ft 444 kts 192°
2026-05-07 03:58 45.59191 5.98596 35007 ft 444 kts 192°
2026-05-07 03:59 45.53089 5.97263 35009 ft 444 kts 192°
2026-05-07 03:59 45.46993 5.95910 35007 ft 443 kts 193°
2026-05-07 04:00 45.40961 5.94172 35008 ft 441 kts 196°
2026-05-07 04:00 45.34995 5.92164 35002 ft 441 kts 197°
2026-05-07 04:01 45.29033 5.90191 35106 ft 439 kts 196°
2026-05-07 04:01 45.23075 5.88290 35308 ft 439 kts 196°
2026-05-07 04:01 45.20092 5.87365 35445 ft 439 kts 195°
2026-05-07 04:02 45.17106 5.86456 35599 ft 439 kts 195°
2026-05-07 04:02 45.14118 5.85563 35769 ft 439 kts 195°
2026-05-07 04:02 45.11133 5.84689 35965 ft 438 kts 195°
2026-05-07 04:02 45.08147 5.83832 36186 ft 437 kts 195°
2026-05-07 04:03 45.05169 5.82995 36412 ft 436 kts 194°
2026-05-07 04:03 45.02233 5.82188 36660 ft 434 kts 194°
2026-05-07 04:03 44.99272 5.81393 36942 ft 432 kts 194°
2026-05-07 04:03 44.96329 5.80621 37239 ft 428 kts 194°
2026-05-07 04:04 44.93404 5.79873 37552 ft 424 kts 194°
2026-05-07 04:04 44.90516 5.79155 37870 ft 419 kts 194°
2026-05-07 04:04 44.87663 5.78466 38202 ft 413 kts 193°
2026-05-07 04:04 44.84842 5.77805 38548 ft 407 kts 193°
2026-05-07 04:05 44.82069 5.77177 38848 ft 400 kts 193°
2026-05-07 04:05 44.79342 5.76580 39114 ft 393 kts 193°
2026-05-07 04:05 44.76663 5.76016 39375 ft 385 kts 192°
2026-05-07 04:05 44.74042 5.75487 39615 ft 376 kts 192°
2026-05-07 04:06 44.71471 5.74990 39800 ft 370 kts 192°
2026-05-07 04:06 44.66336 5.74047 39438 ft 379 kts 192°
2026-05-07 04:06 44.63697 5.73580 39284 ft 382 kts 192°
2026-05-07 04:07 44.61070 5.73134 39393 ft 378 kts 191°
2026-05-07 04:07 44.55936 5.72322 38841 ft 369 kts 191°
2026-05-07 04:07 44.53377 5.71943 38229 ft 369 kts 191°
2026-05-07 04:08 44.50829 5.71584 37523 ft 370 kts 191°
2026-05-07 04:08 44.48174 5.71201 36343 ft 391 kts 191°
2026-05-07 04:08 44.45452 5.70799 35771 ft 408 kts 191°
2026-05-07 04:08 44.42627 5.70136 35551 ft 410 kts 205°
2026-05-07 04:09 44.40129 5.68353 35778 ft 400 kts 214°
2026-05-07 04:09 44.37769 5.66301 35954 ft 399 kts 220°
2026-05-07 04:09 44.35507 5.64031 36008 ft 403 kts 215°
2026-05-07 04:09 44.33039 5.62142 36171 ft 405 kts 209°
2026-05-07 04:10 44.31303 5.61056 36332 ft 405 kts 206°
2026-05-07 04:10 44.27847 5.59139 36663 ft 402 kts 205°
2026-05-07 04:10 44.26128 5.58209 36796 ft 401 kts 205°
2026-05-07 04:10 44.23540 5.56759 36955 ft 400 kts 207°
2026-05-07 04:11 44.20977 5.55234 37008 ft 401 kts 208°
2026-05-07 04:11 44.15854 5.51982 37005 ft 407 kts 209°
2026-05-07 04:12 44.10680 5.48616 37003 ft 414 kts 208°
2026-05-07 04:12 44.05392 5.45229 36997 ft 422 kts 208°
2026-05-07 04:13 44.00028 5.41844 36994 ft 424 kts 208°
2026-05-07 04:13 43.94620 5.38548 36992 ft 425 kts 206°
2026-05-07 04:14 43.89102 5.35582 36986 ft 426 kts 204°
2026-05-07 04:14 43.83542 5.32701 36964 ft 427 kts 205°
2026-05-07 04:15 43.77978 5.29733 36945 ft 430 kts 206°
2026-05-07 04:15 43.72479 5.26455 36943 ft 431 kts 208°
2026-05-07 04:16 43.67014 5.23008 36950 ft 432 kts 208°
2026-05-07 04:16 43.61528 5.19586 36959 ft 433 kts 208°
2026-05-07 04:17 43.56009 5.16216 36972 ft 434 kts 207°
2026-05-07 04:17 43.50516 5.12892 36979 ft 434 kts 207°
2026-05-07 04:18 43.44992 5.09536 36985 ft 434 kts 207°
2026-05-07 04:18 43.39470 5.06188 36988 ft 434 kts 207°
2026-05-07 04:19 43.33945 5.02854 36988 ft 434 kts 207°
2026-05-07 04:19 43.28423 4.99522 36983 ft 433 kts 207°
2026-05-07 04:20 43.22906 4.96192 36985 ft 433 kts 207°
2026-05-07 04:20 43.17390 4.92881 36986 ft 433 kts 207°
2026-05-07 04:21 43.09115 4.87922 36991 ft 432 kts 207°
2026-05-07 04:21 43.03605 4.84620 36992 ft 432 kts 207°
2026-05-07 04:22 42.98098 4.81330 36992 ft 432 kts 207°
2026-05-07 04:22 42.92590 4.78049 36995 ft 432 kts 207°
2026-05-07 04:23 42.87083 4.74771 36998 ft 432 kts 207°
2026-05-07 04:23 42.81575 4.71512 36997 ft 431 kts 207°
2026-05-07 04:24 42.76091 4.68264 37002 ft 431 kts 207°
2026-05-07 04:24 42.70593 4.65013 37009 ft 431 kts 207°
2026-05-07 04:25 42.65096 4.61773 37003 ft 430 kts 208°
2026-05-07 04:25 42.59606 4.58539 37000 ft 430 kts 207°
2026-05-07 04:26 42.54120 4.55312 37010 ft 429 kts 208°
2026-05-07 04:26 42.48646 4.52095 36998 ft 429 kts 208°
2026-05-07 04:27 42.43172 4.48884 37013 ft 428 kts 208°
2026-05-07 04:27 42.37696 4.45694 37009 ft 428 kts 207°
2026-05-07 04:28 42.32226 4.42509 37008 ft 428 kts 208°
2026-05-07 04:28 42.26757 4.39322 37011 ft 428 kts 208°
2026-05-07 04:29 42.21290 4.36137 37007 ft 428 kts 208°
2026-05-07 04:29 42.15820 4.32961 37006 ft 428 kts 207°
2026-05-07 04:30 42.10346 4.29800 37009 ft 428 kts 208°
2026-05-07 04:30 42.04881 4.26641 37008 ft 427 kts 208°
2026-05-07 04:31 41.99423 4.23480 37010 ft 427 kts 208°
2026-05-07 04:31 41.93963 4.20327 37012 ft 427 kts 208°
2026-05-07 04:32 41.88500 4.17194 37014 ft 427 kts 207°
2026-05-07 04:32 41.83039 4.14071 37019 ft 427 kts 208°
2026-05-07 04:33 41.77579 4.10958 37021 ft 426 kts 208°
2026-05-07 04:33 41.72165 4.07869 37021 ft 426 kts 208°
2026-05-07 04:34 41.66708 4.04746 37015 ft 425 kts 208°
2026-05-07 04:34 41.61278 4.01650 37019 ft 425 kts 208°
2026-05-07 04:35 41.55809 3.98546 37018 ft 425 kts 208°
2026-05-07 04:35 41.50369 3.95466 37021 ft 425 kts 207°
2026-05-07 04:36 41.44971 3.92406 37014 ft 424 kts 208°
2026-05-07 04:36 41.39524 3.89324 37025 ft 424 kts 207°
2026-05-07 04:37 41.34112 3.86274 37017 ft 423 kts 207°
2026-05-07 04:37 41.28699 3.83227 37011 ft 423 kts 207°
2026-05-07 04:38 41.23271 3.80173 37009 ft 422 kts 207°
2026-05-07 04:38 41.17857 3.77128 37012 ft 422 kts 207°
2026-05-07 04:39 41.12428 3.74131 37012 ft 423 kts 206°
2026-05-07 04:39 41.06944 3.71313 37012 ft 423 kts 206°
2026-05-07 04:40 41.01433 3.68538 37008 ft 423 kts 206°
2026-05-07 04:40 40.95974 3.65754 37006 ft 423 kts 206°
2026-05-07 04:41 40.90488 3.62932 37001 ft 423 kts 206°
2026-05-07 04:41 40.85004 3.60115 37001 ft 423 kts 206°
2026-05-07 04:42 40.79531 3.57315 37002 ft 423 kts 206°
2026-05-07 04:42 40.74039 3.54509 37006 ft 423 kts 206°
2026-05-07 04:43 40.68525 3.51698 37005 ft 423 kts 206°
2026-05-07 04:43 40.63044 3.48913 37001 ft 423 kts 206°
2026-05-07 04:44 40.57555 3.46130 36894 ft 423 kts 206°
2026-05-07 04:44 40.54825 3.44744 36032 ft 428 kts 206°
2026-05-07 04:44 40.52084 3.43357 35770 ft 416 kts 206°
2026-05-07 04:45 40.49427 3.42019 35634 ft 403 kts 206°
2026-05-07 04:45 40.46826 3.40741 35232 ft 400 kts 203°
2026-05-07 04:45 40.44109 3.39835 34565 ft 407 kts 195°
2026-05-07 04:45 40.41270 3.39458 33962 ft 414 kts 187°
2026-05-07 04:46 40.38368 3.39562 33260 ft 418 kts 184°
2026-05-07 04:46 40.35451 3.39735 32528 ft 419 kts 184°
2026-05-07 04:46 40.32532 3.39903 31790 ft 421 kts 184°
2026-05-07 04:46 40.29602 3.40068 31066 ft 422 kts 184°
2026-05-07 04:47 40.26664 3.40233 30356 ft 423 kts 184°
2026-05-07 04:47 40.23720 3.40399 29539 ft 424 kts 184°
2026-05-07 04:47 40.20726 3.40562 28101 ft 438 kts 183°
2026-05-07 04:47 40.17641 3.40724 26779 ft 448 kts 183°
2026-05-07 04:48 40.14494 3.40889 25592 ft 454 kts 184°
2026-05-07 04:48 40.11380 3.40513 24758 ft 444 kts 197°
2026-05-07 04:48 40.08396 3.39541 24041 ft 441 kts 198°
2026-05-07 04:48 40.05432 3.38550 23300 ft 438 kts 199°
2026-05-07 04:49 40.02493 3.37559 22487 ft 435 kts 199°
2026-05-07 04:49 39.99579 3.36568 21718 ft 431 kts 199°
2026-05-07 04:49 39.96686 3.35582 20990 ft 427 kts 199°
2026-05-07 04:49 39.93824 3.34606 20289 ft 424 kts 199°
2026-05-07 04:50 39.90913 3.33614 19575 ft 420 kts 199°
2026-05-07 04:50 39.85346 3.31724 17588 ft 403 kts 199°
2026-05-07 04:50 39.80067 3.29939 16051 ft 393 kts 199°
2026-05-07 04:50 39.74710 3.28128 15593 ft 391 kts 198°
2026-05-07 04:51 39.69481 3.26366 14277 ft 384 kts 198°
2026-05-07 04:51 39.64474 3.24463 11467 ft 367 kts 209°
2026-05-07 04:51 39.60852 3.20246 8720 ft 355 kts 239°
2026-05-07 04:51 39.58646 3.14576 5850 ft 351 kts 244°
2026-05-07 04:52 39.56807 3.09836 3740 ft 340 kts 243°
2026-05-07 04:52 39.54841 3.04810 3128 ft 283 kts 244°
2026-05-07 04:52 39.53216 3.00657 3043 ft 248 kts 244°
2026-05-07 04:52 39.51632 2.96592 3034 ft 254 kts 244°
2026-05-07 04:53 39.50081 2.92610 3033 ft 240 kts 244°
2026-05-07 04:53 39.48571 2.88742 3055 ft 241 kts 244°
2026-05-07 04:53 39.47068 2.84897 3034 ft 239 kts 244°
2026-05-07 04:53 39.45582 2.81107 3024 ft 232 kts 244°
2026-05-07 04:54 39.44127 2.77393 3032 ft 230 kts 244°
2026-05-07 04:54 39.43299 2.73437 3035 ft 229 kts 265°
2026-05-07 04:54 39.42942 2.69353 3035 ft 229 kts 264°
2026-05-07 04:54 39.42692 2.66650 3034 ft 229 kts 264°
2026-05-07 04:55 39.42316 2.62634 3016 ft 216 kts 264°
2026-05-07 04:55 39.41965 2.58822 3031 ft 211 kts 264°
2026-05-07 04:55 39.41787 2.55095 2768 ft 206 kts 287°
2026-05-07 04:55 39.42619 2.53476 2411 ft 203 kts 322°
2026-05-07 04:56 39.43881 2.52712 2089 ft 202 kts 351°
2026-05-07 04:56 39.45261 2.52845 2044 ft 202 kts 18°
2026-05-07 04:56 39.46428 2.53788 2035 ft 197 kts 46°
2026-05-07 04:56 39.47192 2.55217 2047 ft 190 kts 58°
2026-05-07 04:57 39.47872 2.56655 2047 ft 185 kts 58°
2026-05-07 04:57 39.48544 2.58071 2039 ft 184 kts 58°
2026-05-07 04:57 39.49193 2.59437 2005 ft 167 kts 57°
2026-05-07 04:57 39.49777 2.60666 1873 ft 156 kts 57°
2026-05-07 04:58 39.50336 2.61842 1704 ft 151 kts 57°
2026-05-07 04:58 39.50883 2.62994 1510 ft 149 kts 57°
2026-05-07 04:58 39.51424 2.64133 1318 ft 148 kts 58°
2026-05-07 04:58 39.51963 2.65267 1111 ft 148 kts 58°
2026-05-07 04:59 39.52499 2.66398 907 ft 145 kts 58°
2026-05-07 04:59 39.53025 2.67501 699 ft 145 kts 57°
2026-05-07 04:59 39.53560 2.68605 526 ft 147 kts 57°
2026-05-07 04:59 39.54102 2.69723 331 ft 148 kts 59°
2026-05-07 05:00 39.54613 2.70867 101 ft 144 kts 58°
2026-05-07 05:00 39.55122 2.71918 29 ft 126 kts 58°
2026-05-07 05:00 39.55453 2.72628 24 ft 42 kts 60°
2026-05-07 05:00 39.55507 2.72848 26 ft 23 kts 90°
2026-05-07 05:01 39.55501 2.73054 26 ft 23 kts 93°
2026-05-07 05:01 39.55535 2.73242 27 ft 21 kts 60°
2026-05-07 05:01 39.55608 2.73405 26 ft 20 kts 59°
2026-05-07 05:01 39.55607 2.73513 27 ft 10 kts 144°
2026-05-07 05:02 39.55550 2.73557 29 ft 10 kts 150°
2026-05-07 05:02 39.55493 2.73552 31 ft 9 kts 231°
2026-05-07 05:02 39.55455 2.73476 31 ft 10 kts 238°
2026-05-07 05:02 39.55406 2.73451 32 ft 9 kts 165°
2026-05-07 05:03 39.55315 2.73527 36 ft 20 kts 146°
2026-05-07 05:03 39.55207 2.73617 35 ft 15 kts 149°
2026-05-07 05:03 39.55146 2.73615 36 ft 6 kts 231°
2026-05-07 05:03 39.55116 2.73567 36 ft 10 kts 231°
2026-05-07 05:04 39.55068 2.73533 36 ft 7 kts 168°
2026-05-07 05:04 39.55045 2.73541 34 ft 0 kts 165°